Weather History for Poplar Bluff, MO

Change the Weather History Date:

Monday, November 21, 2011

  Actual Average Record
Temperature  
Mean Temperature 50 °F -  
Max Temperature 53 °F 56 °F 77 °F (1943)
Min Temperature 46 °F 34 °F 10 °F (1937)
Degree Days  
Heating Degree Days 16    
Moisture  
Dew Point 47 °F    
Average Humidity 94    
Maximum Humidity 100    
Minimum Humidity 88    
Precipitation  
Precipitation 0.15 in - - ()
Sea Level Pressure  
Sea Level Pressure 30.11 in    
Wind  
Wind Speed 4 mph (NNE)    
Max Wind Speed 12 mph    
Max Gust Speed -    
Visibility 6 miles    
Events Rain , Thunderstorm    
Averages and records for this station are not official NWS values.
T = Trace of Precipitation, MM = Missing Value Source: NWS Daily Summary

Daily Weather History Graph

Daily Weather History Graph

Search for Another Location

Airport:

Trip Planner

Search our weather history database for the weather conditions in past years. The results will help you decide how hot, cold, wet, or windy it might be!

Date:

Astronomy

Nov. 21, 2011 Rise Set
Actual Time 6:45 AM CST 4:48 PM CST
Civil Twilight 6:17 AM CST 5:16 PM CST
Nautical Twilight 5:45 AM CST 5:48 PM CST
Astronomical Twilight 5:14 AM CST 6:19 PM CST
Moon 2:29 AM CST (11/21) 2:06 PM CST (11/21)
Length of Visible Light 10h 59m
Length of Day
10h 03m
Waning Crescent, 17% of the Moon is Illuminated
Nov 21
Waning Crescent
Nov 25
New
Dec 2
First Quarter
Dec 10
Full
Dec 17
Last Quarter

Hourly Weather History & Observations

Time (CST) Temp. Windchill Dew Point Humidity Pressure Visibility Wind Dir Wind Speed Gust Speed Precip Events Conditions
12:24 AM 46.4 °F - 44.6 °F 93% 30.12 in 10.0 mi Calm Calm - 0.01 in   Mostly Cloudy
12:36 AM 46.4 °F 41.9 °F 44.6 °F 93% 30.13 in 10.0 mi NNW 9.2 mph - 0.01 in   Mostly Cloudy
12:53 AM 46.0 °F 41.4 °F 45.0 °F 96% 30.13 in 10.0 mi NNW 9.2 mph - 0.01 in   Overcast
1:00 AM 46.4 °F - 44.6 °F 93% 30.14 in 10.0 mi Calm Calm - 0.00 in Rain Light Rain
1:41 AM 46.4 °F 45.2 °F 44.6 °F 93% 30.13 in 10.0 mi NW 3.5 mph - 0.00 in   Overcast
1:53 AM 46.9 °F - 45.0 °F 93% 30.13 in 10.0 mi Calm Calm - 0.00 in   Overcast
2:13 AM 46.4 °F - 44.6 °F 93% 30.13 in 10.0 mi Calm Calm - 0.00 in Rain , Thunderstorm Light Thunderstorms and Rain
2:27 AM 46.4 °F - 44.6 °F 93% 30.13 in 9.0 mi Calm Calm - 0.01 in Rain Light Rain
2:36 AM 46.4 °F 44.3 °F 44.6 °F 93% 30.13 in 8.0 mi NW 4.6 mph - 0.02 in Rain Light Rain
2:53 AM 46.9 °F - 45.0 °F 93% 30.13 in 10.0 mi North 5.8 mph - 0.02 in Rain Light Rain
3:03 AM 46.4 °F 45.2 °F 44.6 °F 93% 30.12 in 10.0 mi North 3.5 mph - N/A   Overcast
3:19 AM 46.4 °F 41.1 °F 44.6 °F 93% 30.12 in 10.0 mi NNW 11.5 mph - N/A   Overcast
3:53 AM 46.0 °F 43.1 °F 44.1 °F 93% 30.15 in 10.0 mi North 5.8 mph - N/A   Overcast
4:38 AM 46.4 °F 44.3 °F 44.6 °F 93% 30.13 in 10.0 mi NE 4.6 mph - N/A   Overcast
4:53 AM 46.9 °F - 45.0 °F 93% 30.15 in 10.0 mi North 4.6 mph - N/A   Overcast
5:53 AM 46.9 °F - 45.0 °F 93% 30.15 in 10.0 mi NE 4.6 mph - N/A   Overcast
6:53 AM 46.9 °F - 45.0 °F 93% 30.17 in 10.0 mi North 4.6 mph - 0.00 in   Overcast
7:53 AM 46.9 °F - 45.0 °F 93% 30.17 in 10.0 mi North 6.9 mph - 0.00 in   Overcast
8:53 AM 48.0 °F - 46.0 °F 93% 30.19 in 9.0 mi North 5.8 mph - N/A   Overcast
9:24 AM 48.2 °F - 46.4 °F 93% 30.16 in 4.0 mi NE 8.1 mph - N/A   Overcast
9:53 AM 48.0 °F - 46.9 °F 96% 30.18 in 4.0 mi North 5.8 mph - N/A   Overcast
10:53 AM 48.9 °F - 48.0 °F 97% 30.17 in 4.0 mi NNE 5.8 mph - N/A   Overcast
12:04 PM 50.0 °F - 48.2 °F 94% 30.15 in 2.5 mi ENE 4.6 mph - N/A   Overcast
12:30 PM 50.0 °F - 48.2 °F 94% 30.14 in 1.8 mi ENE 4.6 mph - N/A   Overcast
12:53 PM 51.1 °F - 48.9 °F 92% 30.14 in 1.5 mi Calm Calm - N/A   Overcast
1:53 PM 52.0 °F - 51.1 °F 97% 30.12 in 1.0 mi North 4.6 mph - N/A   Overcast
2:12 PM 51.8 °F - 51.8 °F 100% 30.10 in 2.5 mi North 5.8 mph - N/A   Overcast
2:20 PM 51.8 °F - 51.8 °F 100% 30.10 in 3.0 mi North 4.6 mph - N/A   Overcast
2:53 PM 52.0 °F - 50.0 °F 93% 30.09 in 5.0 mi North 6.9 mph - N/A   Overcast
3:02 PM 53.6 °F - 50.0 °F 88% 30.07 in 6.0 mi North 5.8 mph - N/A   Overcast
3:53 PM 53.1 °F - 50.0 °F 89% 30.08 in 10.0 mi NNE 4.6 mph - N/A   Overcast
4:53 PM 52.0 °F - 50.0 °F 93% 30.08 in 9.0 mi NE 5.8 mph - N/A   Overcast
5:53 PM 51.1 °F - 50.0 °F 96% 30.09 in 5.0 mi ENE 4.6 mph - N/A   Overcast
6:53 PM 52.0 °F - 50.0 °F 93% 30.10 in 4.0 mi East 4.6 mph - N/A   Overcast
7:53 PM 51.1 °F - 50.0 °F 96% 30.09 in 3.0 mi NE 5.8 mph - N/A   Overcast
8:02 PM 51.8 °F - 50.0 °F 94% 30.08 in 2.5 mi NE 6.9 mph - N/A   Overcast
8:17 PM 51.8 °F - 50.0 °F 94% 30.07 in 3.0 mi NE 6.9 mph - N/A   Overcast
8:53 PM 51.1 °F - 50.0 °F 96% 30.06 in 4.0 mi NNE 6.9 mph - N/A   Overcast
9:53 PM 51.1 °F - 48.9 °F 92% 30.02 in 4.0 mi NE 5.8 mph - N/A   Overcast
10:53 PM 50.0 °F - 48.9 °F 96% 30.04 in 2.5 mi NE 5.8 mph - 0.00 in Rain Light Rain
11:10 PM 50.0 °F - 48.2 °F 94% 30.04 in 1.5 mi NNE 4.6 mph - 0.01 in Rain Light Rain
11:27 PM 50.0 °F - 48.2 °F 94% 30.02 in 2.0 mi NNE 6.9 mph - 0.04 in Rain Rain
11:40 PM 50.0 °F - 48.2 °F 94% 30.02 in 3.0 mi North 5.8 mph - 0.09 in Rain , Thunderstorm Rain
11:53 PM 50.0 °F - 48.9 °F 96% 30.02 in 4.0 mi NNE 6.9 mph - 0.12 in Rain , Thunderstorm Light Rain